TimeEST,TemperatureF,Dew PointF,Humidity,Sea Level PressureIn,VisibilityMPH,Wind Direction,Wind SpeedMPH,Gust SpeedMPH,PrecipitationIn,Events,Conditions,WindDirDegrees,DateUTC
12:10 AM,19.4,10.4,68,29.91,10.0,West,13.8,23.0,N/A,,Overcast,270,2013-02-20 05:10:00
12:53 AM,19.9,9.0,62,29.95,10.0,West,17.3,25.3,N/A,,Overcast,270,2013-02-20 05:53:00
1:53 AM,19.0,9.0,65,29.96,10.0,West,15.0,28.8,N/A,,Overcast,270,2013-02-20 06:53:00
2:53 AM,19.0,10.9,71,29.98,10.0,West,13.8,26.5,N/A,,Mostly Cloudy,270,2013-02-20 07:53:00
3:03 AM,19.4,10.4,68,29.95,10.0,West,13.8,20.7,N/A,,Mostly Cloudy,260,2013-02-20 08:03:00
3:53 AM,19.0,10.0,68,29.98,10.0,West,16.1,28.8,N/A,,Overcast,280,2013-02-20 08:53:00
4:31 AM,17.6,10.4,73,29.97,4.0,West,12.7,20.7,0.00,Snow,Light Snow,280,2013-02-20 09:31:00
4:53 AM,18.0,12.0,78,30.01,5.0,West,13.8,21.9,0.00,Snow,Light Snow,280,2013-02-20 09:53:00
5:03 AM,17.6,10.4,73,29.99,8.0,West,17.3,26.5,0.00,Snow,Light Snow,280,2013-02-20 10:03:00
5:53 AM,17.1,7.0,65,30.75,10.0,WNW,15.0,20.7,0.00,,Mostly Cloudy,290,2013-02-20 10:53:00
6:53 AM,17.1,9.0,71,30.06,10.0,West,13.8,21.9,N/A,,Overcast,280,2013-02-20 11:53:00
7:53 AM,17.6,6.8,63,30.04,10.0,West,11.5,21.9,N/A,,Overcast,280,2013-02-20 12:53:00
8:53 AM,18.0,7.0,62,30.81,10.0,NW,13.8,26.5,N/A,,Overcast,310,2013-02-20 13:53:00
9:53 AM,19.9,7.0,57,30.82,10.0,WNW,16.1,24.2,N/A,,Mostly Cloudy,300,2013-02-20 14:53:00
10:53 AM,19.9,7.0,57,30.84,10.0,NW,11.5,27.6,N/A,,Overcast,310,2013-02-20 15:53:00
11:53 AM,21.0,5.0,50,30.13,10.0,WNW,15.0,27.6,N/A,,Overcast,290,2013-02-20 16:53:00
12:53 PM,21.0,6.1,53,30.14,10.0,WNW,13.8,20.7,N/A,,Overcast,300,2013-02-20 17:53:00
1:53 PM,21.9,8.1,55,30.16,10.0,NW,9.2,23.0,N/A,,Overcast,320,2013-02-20 18:53:00
2:53 PM,21.9,9.0,58,30.17,9.0,West,10.4,18.4,0.00,,Overcast,270,2013-02-20 19:53:00
3:53 PM,23.0,9.0,55,30.18,10.0,West,10.4,17.3,N/A,,Overcast,280,2013-02-20 20:53:00
4:53 PM,23.0,8.6,54,30.18,10.0,West,11.5,20.7,N/A,,Overcast,280,2013-02-20 21:53:00
5:53 PM,21.9,10.0,60,30.96,8.0,West,15.0,18.4,0.00,Snow,Light Snow,270,2013-02-20 22:53:00
6:53 PM,21.9,10.9,63,30.95,10.0,WNW,13.8,17.3,0.00,,Overcast,290,2013-02-20 23:53:00
7:53 PM,23.0,10.9,60,30.22,10.0,WNW,6.9,-,N/A,,Overcast,300,2013-02-21 00:53:00
8:53 PM,23.0,12.0,63,30.23,10.0,NW,9.2,19.6,0.00,,Overcast,320,2013-02-21 01:53:00
9:53 PM,23.0,10.0,58,30.24,10.0,NW,10.4,20.7,N/A,,Overcast,310,2013-02-21 02:53:00
10:38 PM,21.2,12.2,68,30.21,10.0,NW,9.2,17.3,N/A,,Overcast,320,2013-02-21 03:38:00
10:53 PM,21.2,12.2,68,30.21,8.0,NNW,9.2,-,N/A,Snow,Light Snow,330,2013-02-21 03:53:00
11:53 PM,21.9,10.9,63,30.24,10.0,NW,10.4,18.4,0.00,,Overcast,320,2013-02-21 04:53:00